Location: *
(45.9500°N, 9.0833°E)
Time: 19:55:13
(UTC+00:00)

Tiros 1 despin weight - Pass Details

Date: 22 June 2021
Orbit: 593 x 642 km, 48.2° (Epoch: 05 August)

Event Time Altitude Azimuth Distance (km) Brightness Sun altitude
Rises 02:51:32 0° 191° (S) 2,830 - -6.4°
Exits shadow 02:51:59 - 188° (S) 2,686 ? -6.4°
Reaches altitude 10° 02:54:54 10° 164° (SSE) 1,925 ? -6.0°
Maximum altitude 02:57:01 13° 135° (SE) 1,714 ? -5.7°
Drops below altitude 10° 02:59:07 10° 106° (ESE) 1,923 ? -5.4°
Sets 03:02:28 0° 80° (E) 2,827 ? -5.0°
